Home > Weather > Canada > Cape Dorset > Past weeks

Flag for Canada Weather past 2 weeks in Cape Dorset, Nunavut, Canada

-11 °F

Low level haze.

Feels Like: -38 °F
Forecast: -13 / -8 °F
Wind: 23 mph from Northwest

Location: Cape Dorset

Current Time: Dec 1, 2015 at 12:26:15 PM

Latest Report: Dec 1, 2015 at 12:00 PM

Visibility: 15 mi

Pressure: 29.51 "Hg

Humidity: 76%

Dew point: -17 °F

Location of Cape DorsetLocation

Historic Weather in Cape Dorset — Graph


Cape Dorset temperature yesterday

Maximum temperature yesterday: 18 °F (at 12:00 AM)
Minimum temperature yesterday: -11 °F (at 11:57 PM)
Average temperature yesterday: 8 °F

Past Weeks' High & Low Weather Summary

High34 °F (Nov 19, 7:00 PM)100% (Nov 16, 12:00 PM)30.33 "Hg (Nov 16, 12:00 PM)
Low-15 °F (Nov 27, 9:00 PM)70% (Nov 27, 3:00 AM)28.97 "Hg (Nov 19, 5:00 PM)
Average9 °F88%29.77 "Hg
* Reported Nov 16 11:00 AM — Dec 1 11:00 AM, Cape Dorset, Weather by CustomWeather, © 2015

Note: Actual official high and low records may vary slightly from our data, if they occured in-between our weather recording intervals... More about our weather records


Cape Dorset weather history for previous 24 hours

Time TempWeatherWind HumidityBarometerVisibility
11:00 AM
Tue, Dec 1
-11 °FLow level haze.22 mph70%29.52 "Hg15 mi
10:00 AM-11 °FLow level haze.21 mph76%29.52 "Hg15 mi
9:00 AM-11 °FLow level haze.20 mph76%29.52 "Hg15 mi
8:00 AM-11 °FClear.15 mph76%29.54 "Hg9 mi
7:00 AM-9 °FClear.12 mph70%29.55 "Hg9 mi
6:00 AM-11 °FClear.14 mph76%29.54 "Hg9 mi
5:00 AM-11 °FClear.13 mph76%29.54 "Hg9 mi
4:00 AM-9 °FClear.20 mph77%29.52 "Hg9 mi
3:00 AM-9 °FClear.15 mph70%29.53 "Hg9 mi
2:00 AM-9 °FLight snow. Clear.29 mph77%29.49 "Hg2 mi
1:00 AM-11 °FClear.30 mph76%29.47 "Hg3 mi
12:00 AM-11 °FClear.31 mph76%29.47 "Hg7 mi
11:57 PM
Mon, Nov 30
-11 °FLight snow. Clear.31 mph76%29.47 "Hg6 mi
11:04 PM-9 °FLight snow. Clear.32 mph70%29.46 "Hg2 mi
10:58 PM-9 °FClear.30 mph70%29.46 "Hg2 mi
10:04 PM-9 °FLight snow. Clear.26 mph77%29.45 "Hg3 mi
10:02 PM-9 °FIce fog.28 mph77%29.45 "Hg3 mi
9:02 PM-6 °FClear.24 mph77%29.45 "Hg7 mi
7:00 PM-6 °FLight snow. Clear.28 mph84%29.40 "Hg1 mi
6:03 PM-4 °FLight snow. Clear.16 mph77%29.41 "Hg3 mi
5:00 PM-2 °FClear.14 mph84%29.41 "Hg8 mi
4:00 PM1 °FPassing clouds.17 mph85%29.38 "Hg15 mi
3:00 PM5 °FPassing clouds.20 mph85%29.35 "Hg15 mi
2:00 PM9 °FLight snow. Broken clouds.12 mph85%29.35 "Hg15 mi
1:00 PM16 °FLight snow. Ice fog.22 mph93%29.32 "Hg1 mi
12:00 PM18 °FLight snow. Ice fog.17 mph100%29.33 "Hg1 mi
Weather by CustomWeather, © 2015

See weather overviewHow to use our weather pages